Tracking 30696 objects as of 15-Jun-2025
HD Live streaming from Space Station
objects crossing your sky now

CZ-3C DEB

Track CZ-3C DEB now!


NORAD ID: 40861
Int'l Code: 2012-008AB
Perigee: 715.4 km
Apogee: 35,171.9 km
Inclination: 20.7 °
Period: 628.9 minutes
Semi major axis: 24314 km
RCS: Unknown
Launch date: February 24, 2012
Source: People's Republic of China (PRC)
Launch site: Xichang Space Center, China (XSC)

Note: This is SATELLITE DEBRIS
Your satellite tracking list
Your tracking list is empty




NASA's NSSDC Master Catalog

Two Line Element Set (TLE):
1 40861U 12008AB  25163.03867185 -.00000146  00000-0 -13261-2 0  9993
2 40861  20.7286 105.9296 7085553  42.1680 354.3136  2.28981736 87985
Source of the keplerian elements: AFSPC